,,PA_Meas_PMT16A,,PR_Meas_QMR101_102,,RH_Meas_QMH101,,SR_Meas_QMS101,,TA_Meas_QMH101,,GenWind,,GenWind,
time,status,PA,status,PR,status,RH,status,SR,status,TA,status,DirAvg,status,SpdAvg,
2011-07-07, 00:00:04,VALID,917.004,VALID,0,VALID,93.5698,VALID,0,VALID,17.8118,VALID,151,VALID,1.13281,
2011-07-07, 00:01:04,VALID,916.997,VALID,0,VALID,93.12,VALID,0,VALID,17.8716,VALID,151,VALID,1.23984,
2011-07-07, 00:02:04,VALID,917.005,VALID,0,VALID,92.777,VALID,0,VALID,17.8716,VALID,151,VALID,1.06094,
2011-07-07, 00:03:04,VALID,917.009,VALID,0,VALID,92.5483,VALID,0,VALID,17.8521,VALID,151,VALID,1.00625,
2011-07-07, 00:04:04,VALID,917.002,VALID,0,VALID,92.5483,VALID,0,VALID,17.8313,VALID,151,VALID,0.695703,
2011-07-07, 00:05:04,VALID,916.992,VALID,0,VALID,92.9676,VALID,0,VALID,17.8313,VALID,151,VALID,1.13359,
2011-07-07, 00:06:04,VALID,916.965,VALID,0,VALID,93.1048,VALID,0,VALID,17.7533,VALID,151,VALID,0.909766,
2011-07-07, 00:07:04,VALID,916.924,VALID,0,VALID,93.181,VALID,0,VALID,17.6754,VALID,151,VALID,0.901953,
2011-07-07, 00:08:04,VALID,916.924,VALID,0,VALID,93.5241,VALID,0,VALID,17.6559,VALID,151,VALID,1.06172,
2011-07-07, 00:09:04,VALID,916.919,VALID,0,VALID,93.9357,VALID,0,VALID,17.6169,VALID,151,VALID,1.05234,
2011-07-07, 00:10:04,VALID,916.905,VALID,0,VALID,94.2102,VALID,0,VALID,17.6364,VALID,151,VALID,1.03828,
2011-07-07, 00:11:04,VALID,916.952,VALID,0,VALID,94.1339,VALID,0,VALID,17.6364,VALID,151,VALID,0.939844,
2011-07-07, 00:12:04,VALID,916.96,VALID,0,VALID,93.8747,VALID,0,VALID,17.7143,VALID,151,VALID,1.27539,
2011-07-07, 00:13:04,VALID,916.971,VALID,0,VALID,93.2572,VALID,0,VALID,17.7936,VALID,151,VALID,1.23164,
2011-07-07, 00:14:04,VALID,916.941,VALID,0,VALID,92.4263,VALID,0,VALID,17.8508,VALID,151,VALID,1.36758,
2011-07-07, 00:15:04,VALID,916.955,VALID,0,VALID,91.542,VALID,0,VALID,17.9092,VALID,111,VALID,1.61055,
2011-07-07, 00:16:04,VALID,916.918,VALID,0,VALID,90.955,VALID,0,VALID,17.9482,VALID,112,VALID,1.2543,
2011-07-07, 00:17:04,VALID,916.888,VALID,0,VALID,90.9473,VALID,0,VALID,17.9872,VALID,112,VALID,1.1043,
2011-07-07, 00:18:04,VALID,916.866,VALID,0,VALID,91.2752,VALID,0,VALID,17.9872,VALID,112,VALID,0.970312,
2011-07-07, 00:19:04,VALID,916.878,VALID,0,VALID,91.8393,VALID,0,VALID,17.9872,VALID,125,VALID,1.51328,
2011-07-07, 00:20:04,VALID,916.845,VALID,0,VALID,91.7097,VALID,0,VALID,17.9872,VALID,123,VALID,0.9375,
2011-07-07, 00:21:04,VALID,916.835,VALID,0,VALID,91.5496,VALID,0,VALID,17.9886,VALID,123,VALID,0.726953,
2011-07-07, 00:22:04,VALID,916.834,VALID,0,VALID,91.6411,VALID,0,VALID,17.9677,VALID,123,VALID,1.06016,
2011-07-07, 00:23:04,VALID,916.802,VALID,0,VALID,91.4886,VALID,0,VALID,17.9482,VALID,118,VALID,1.42852,
2011-07-07, 00:24:04,VALID,916.799,VALID,0,VALID,91.0922,VALID,0,VALID,17.9886,VALID,122,VALID,1.50352,
2011-07-07, 00:25:04,VALID,916.756,VALID,0,VALID,90.6043,VALID,0,VALID,18.047,VALID,123,VALID,1.44258,
2011-07-07, 00:26:04,VALID,916.762,VALID,0,VALID,90.3299,VALID,0,VALID,18.1041,VALID,123,VALID,1.28437,
2011-07-07, 00:27:04,VALID,916.738,VALID,0,VALID,89.8496,VALID,0,VALID,18.125,VALID,123,VALID,1.31289,
2011-07-07, 00:28:04,VALID,916.768,VALID,0,VALID,89.5142,VALID,0,VALID,18.164,VALID,123,VALID,0.778125,
2011-07-07, 00:29:04,VALID,916.739,VALID,0,VALID,88.9119,VALID,0,VALID,18.1445,VALID,123,VALID,0.529688,
2011-07-07, 00:30:04,VALID,916.744,VALID,0,VALID,89.1101,VALID,0,VALID,18.0846,VALID,123,VALID,0.490625,
2011-07-07, 00:31:04,VALID,916.717,VALID,0,VALID,89.2473,VALID,0,VALID,18.0665,VALID,123,VALID,0.58125,
2011-07-07, 00:32:04,VALID,916.71,VALID,0,VALID,89.598,VALID,0,VALID,18.0275,VALID,123,VALID,1.02227,
2011-07-07, 00:33:04,VALID,916.729,VALID,0,VALID,89.4684,VALID,0,VALID,18.0094,VALID,123,VALID,0.777734,
2011-07-07, 00:34:04,VALID,916.734,VALID,0,VALID,89.3769,VALID,0,VALID,18.008,VALID,123,VALID,0.722266,
2011-07-07, 00:35:04,VALID,916.706,VALID,0,VALID,89.0186,VALID,0,VALID,17.9677,VALID,123,VALID,0.435156,
2011-07-07, 00:36:04,VALID,916.699,VALID,0,VALID,88.9271,VALID,0,VALID,17.9482,VALID,123,VALID,0.538281,
2011-07-07, 00:37:04,VALID,916.695,VALID,0,VALID,89.0491,VALID,0,VALID,17.9704,VALID,123,VALID,0.738672,
2011-07-07, 00:38:04,VALID,916.7,VALID,0,VALID,89.1711,VALID,0,VALID,17.9287,VALID,123,VALID,0.939453,
2011-07-07, 00:39:04,VALID,916.652,VALID,0,VALID,89.0034,VALID,0,VALID,17.9496,VALID,123,VALID,0.978125,
2011-07-07, 00:40:04,VALID,916.622,VALID,0,VALID,88.7747,VALID,0,VALID,17.9677,VALID,124,VALID,1.05938,
2011-07-07, 00:41:04,VALID,916.583,VALID,0,VALID,88.9424,VALID,0,VALID,17.9677,VALID,124,VALID,0.860156,
2011-07-07, 00:42:04,VALID,916.57,VALID,0,VALID,89.0644,VALID,0,VALID,17.9287,VALID,124,VALID,1.07422,
2011-07-07, 00:43:04,VALID,916.552,VALID,0,VALID,88.9348,VALID,0,VALID,17.9301,VALID,124,VALID,0.8875,
2011-07-07, 00:44:04,VALID,916.544,VALID,0,VALID,88.7594,VALID,0,VALID,17.9092,VALID,124,VALID,1.30703,
2011-07-07, 00:45:04,VALID,916.548,VALID,0,VALID,88.241,VALID,0,VALID,17.9482,VALID,124,VALID,1.45,
2011-07-07, 00:46:04,VALID,916.569,VALID,0,VALID,86.9069,VALID,0,VALID,18.0262,VALID,131,VALID,1.67617,
2011-07-07, 00:47:04,VALID,916.585,VALID,0,VALID,85.8092,VALID,0.107441,VALID,18.0846,VALID,131,VALID,1.08555,
2011-07-07, 00:48:04,VALID,916.559,VALID,0,VALID,85.4966,VALID,0,VALID,18.125,VALID,131,VALID,0.919141,
2011-07-07, 00:49:04,VALID,916.566,VALID,0,VALID,86.1675,VALID,0,VALID,18.086,VALID,131,VALID,0.485547,
2011-07-07, 00:50:04,VALID,916.567,VALID,0,VALID,86.1675,VALID,0,VALID,17.9301,VALID,131,VALID,0.711328,
2011-07-07, 00:51:04,VALID,916.53,VALID,0,VALID,87.4406,VALID,0,VALID,17.7325,VALID,131,VALID,0.656641,
2011-07-07, 00:52:04,VALID,916.521,VALID,0,VALID,88.0886,VALID,0,VALID,17.6767,VALID,130,VALID,0.580859,
2011-07-07, 00:53:04,VALID,916.496,VALID,0,VALID,88.1343,VALID,0,VALID,17.6377,VALID,131,VALID,0.765625,
2011-07-07, 00:54:04,VALID,916.473,VALID,0,VALID,87.9818,VALID,0,VALID,17.6767,VALID,131,VALID,0.978906,
2011-07-07, 00:55:04,VALID,916.481,VALID,0,VALID,87.8294,VALID,0,VALID,17.7338,VALID,130,VALID,1.2,
2011-07-07, 00:56:04,VALID,916.506,VALID,0,VALID,87.5549,VALID,0,VALID,17.7533,VALID,129,VALID,1.06758,
2011-07-07, 00:57:04,VALID,916.504,VALID,0,VALID,87.5626,VALID,0,VALID,17.7533,VALID,129,VALID,0.820703,
2011-07-07, 00:58:04,VALID,916.551,VALID,0,VALID,87.9742,VALID,0,VALID,17.6754,VALID,129,VALID,0.738281,
2011-07-07, 00:59:04,VALID,916.547,VALID,0,VALID,88.0962,VALID,0,VALID,17.6767,VALID,129,VALID,0.536328,
2011-07-07, 01:00:04,VALID,916.542,VALID,0,VALID,88.2105,VALID,0,VALID,17.6364,VALID,129,VALID,0.644922,
2011-07-07, 01:01:04,VALID,916.535,VALID,0,VALID,88.0886,VALID,0,VALID,17.6559,VALID,129,VALID,1.08789,
2011-07-07, 01:02:04,VALID,916.52,VALID,0,VALID,87.6845,VALID,0,VALID,17.6962,VALID,129,VALID,0.800391,
2011-07-07, 01:03:04,VALID,916.506,VALID,0,VALID,88.3554,VALID,0,VALID,17.5779,VALID,129,VALID,1.12227,
2011-07-07, 01:04:04,VALID,916.492,VALID,0,VALID,88.9881,VALID,0,VALID,17.5987,VALID,128,VALID,1.35781,
2011-07-07, 01:05:04,VALID,916.482,VALID,0,VALID,89.0034,VALID,0,VALID,17.6962,VALID,128,VALID,1.41875,
2011-07-07, 01:06:04,VALID,916.486,VALID,0,VALID,89.0263,VALID,0,VALID,17.7352,VALID,128,VALID,1.51445,
2011-07-07, 01:07:04,VALID,916.499,VALID,0,VALID,88.9958,VALID,0,VALID,17.7143,VALID,127,VALID,1.08047,
2011-07-07, 01:08:04,VALID,916.559,VALID,0,VALID,89.3617,VALID,0,VALID,17.6559,VALID,116,VALID,1.05,
2011-07-07, 01:09:04,VALID,916.61,VALID,0,VALID,89.7581,VALID,0,VALID,17.6377,VALID,122,VALID,1.42266,
2011-07-07, 01:10:04,VALID,916.617,VALID,0,VALID,89.6666,VALID,0,VALID,17.5792,VALID,117,VALID,1.24844,
2011-07-07, 01:11:04,VALID,916.615,VALID,0,VALID,89.9334,VALID,0,VALID,17.5389,VALID,118,VALID,1.18789,
2011-07-07, 01:12:04,VALID,916.644,VALID,0,VALID,89.9411,VALID,0,VALID,17.5208,VALID,118,VALID,1.20156,
2011-07-07, 01:13:04,VALID,916.651,VALID,0,VALID,90.2003,VALID,0,VALID,17.5403,VALID,118,VALID,1.38359,
2011-07-07, 01:14:04,VALID,916.631,VALID,0,VALID,90.0402,VALID,0,VALID,17.5792,VALID,118,VALID,1.34922,
2011-07-07, 01:15:04,VALID,916.632,VALID,0,VALID,89.4227,VALID,0,VALID,17.6377,VALID,118,VALID,1.46133,
2011-07-07, 01:16:04,VALID,916.625,VALID,0,VALID,88.6756,VALID,0,VALID,17.6948,VALID,118,VALID,1.24297,
2011-07-07, 01:17:04,VALID,916.562,VALID,0,VALID,87.9666,VALID,0,VALID,17.8131,VALID,118,VALID,1.40977,
2011-07-07, 01:18:04,VALID,916.573,VALID,0,VALID,87.0594,VALID,0,VALID,17.8897,VALID,120,VALID,1.48906,
2011-07-07, 01:19:04,VALID,916.563,VALID,0,VALID,86.2208,VALID,0,VALID,17.9886,VALID,120,VALID,1.5918,
2011-07-07, 01:20:04,VALID,916.541,VALID,0,VALID,85.5271,VALID,0,VALID,18.0665,VALID,120,VALID,1.21211,
2011-07-07, 01:21:04,VALID,916.557,VALID,0,VALID,85.3975,VALID,0,VALID,18.086,VALID,120,VALID,1.10117,
2011-07-07, 01:22:04,VALID,916.545,VALID,0,VALID,85.5195,VALID,0,VALID,18.0665,VALID,120,VALID,1.06523,
2011-07-07, 01:23:04,VALID,916.571,VALID,0,VALID,85.611,VALID,0,VALID,18.0457,VALID,120,VALID,0.741016,
2011-07-07, 01:24:04,VALID,916.531,VALID,0,VALID,85.5271,VALID,0,VALID,18.047,VALID,140,VALID,1.47422,
2011-07-07, 01:25:04,VALID,916.564,VALID,0,VALID,85.0926,VALID,0,VALID,18.1055,VALID,125,VALID,1.57734,
2011-07-07, 01:26:04,VALID,916.547,VALID,0,VALID,85.1383,VALID,0,VALID,18.086,VALID,125,VALID,1.52148,
2011-07-07, 01:27:04,VALID,916.594,VALID,0,VALID,85.4051,VALID,0,VALID,18.047,VALID,125,VALID,1.12383,
2011-07-07, 01:28:04,VALID,916.586,VALID,0,VALID,85.6186,VALID,0,VALID,18.047,VALID,125,VALID,0.840625,
2011-07-07, 01:29:04,VALID,916.588,VALID,0,VALID,86.0836,VALID,0,VALID,17.9482,VALID,125,VALID,0.426172,
2011-07-07, 01:30:04,VALID,916.603,VALID,0,VALID,86.2971,VALID,0,VALID,17.9301,VALID,125,VALID,0,
2011-07-07, 01:31:04,VALID,916.625,VALID,0,VALID,86.5639,VALID,0,VALID,17.9106,VALID,125,VALID,0.413281,
2011-07-07, 01:32:04,VALID,916.644,VALID,0,VALID,86.8764,VALID,0,VALID,17.8508,VALID,125,VALID,0.0457031,
2011-07-07, 01:33:04,VALID,916.688,VALID,0,VALID,87.0137,VALID,0,VALID,17.7923,VALID,125,VALID,0.555469,
2011-07-07, 01:34:04,VALID,916.704,VALID,0,VALID,87.9361,VALID,0,VALID,17.6948,VALID,125,VALID,0.738281,
2011-07-07, 01:35:04,VALID,916.704,VALID,0,VALID,88.5002,VALID,0,VALID,17.6377,VALID,125,VALID,0.677734,
2011-07-07, 01:36:04,VALID,916.701,VALID,0,VALID,88.889,VALID,0,VALID,17.5779,VALID,125,VALID,0.616406,
2011-07-07, 01:37:04,VALID,916.699,VALID,0,VALID,88.8433,VALID,0,VALID,17.5598,VALID,125,VALID,0.678125,
2011-07-07, 01:38:04,VALID,916.678,VALID,0,VALID,88.9881,VALID,0,VALID,17.4805,VALID,125,VALID,0.629297,
2011-07-07, 01:39:04,VALID,916.678,VALID,0,VALID,89.3083,VALID,0,VALID,17.4818,VALID,125,VALID,0.532422,
2011-07-07, 01:40:04,VALID,916.671,VALID,0,VALID,89.3159,VALID,0,VALID,17.422,VALID,125,VALID,0.873828,
2011-07-07, 01:41:04,VALID,916.643,VALID,0,VALID,89.3617,VALID,0,VALID,17.4415,VALID,125,VALID,1.18164,
2011-07-07, 01:42:04,VALID,916.653,VALID,0,VALID,89.3693,VALID,0,VALID,17.4415,VALID,125,VALID,1.00547,
2011-07-07, 01:43:04,VALID,916.642,VALID,0,VALID,89.2016,VALID,0,VALID,17.4818,VALID,125,VALID,0.754687,
2011-07-07, 01:44:04,VALID,916.632,VALID,0,VALID,88.5765,VALID,0,VALID,17.5,VALID,125,VALID,0.805469,
2011-07-07, 01:45:04,VALID,916.613,VALID,0,VALID,88.4697,VALID,0,VALID,17.5389,VALID,125,VALID,0.739844,
2011-07-07, 01:46:04,VALID,916.595,VALID,0,VALID,87.8522,VALID,0,VALID,17.5598,VALID,125,VALID,0.657812,
2011-07-07, 01:47:04,VALID,916.593,VALID,0,VALID,87.776,VALID,0,VALID,17.6182,VALID,125,VALID,0.558203,
2011-07-07, 01:48:04,VALID,916.597,VALID,0,VALID,87.7608,VALID,0,VALID,17.4415,VALID,125,VALID,0.809766,
2011-07-07, 01:49:04,VALID,916.575,VALID,0,VALID,88.7289,VALID,0,VALID,17.209,VALID,125,VALID,1.32266,
2011-07-07, 01:50:04,VALID,916.57,VALID,0,VALID,88.5993,VALID,0,VALID,17.0518,VALID,125,VALID,1.40195,
2011-07-07, 01:51:04,VALID,916.54,VALID,0,VALID,87.4101,VALID,0,VALID,17.131,VALID,125,VALID,1.34609,
2011-07-07, 01:52:04,VALID,916.533,VALID,0,VALID,86.3657,VALID,0,VALID,17.2466,VALID,125,VALID,1.18867,
2011-07-07, 01:53:04,VALID,916.533,VALID,0,VALID,85.3975,VALID,0,VALID,17.3441,VALID,125,VALID,1.03945,
2011-07-07, 01:54:04,VALID,916.534,VALID,0,VALID,84.9401,VALID,0.107441,VALID,17.4415,VALID,125,VALID,0.537891,
2011-07-07, 01:55:04,VALID,916.517,VALID,0,VALID,84.4827,VALID,0.107441,VALID,17.4791,VALID,125,VALID,0.610156,
2011-07-07, 01:56:04,VALID,916.533,VALID,0,VALID,83.9948,VALID,0.107441,VALID,17.5779,VALID,125,VALID,0.754297,
2011-07-07, 01:57:04,VALID,916.526,VALID,0,VALID,84.2769,VALID,0.107441,VALID,17.5779,VALID,125,VALID,0.479297,
2011-07-07, 01:58:04,VALID,916.481,VALID,0,VALID,83.8804,VALID,0.107441,VALID,17.5584,VALID,125,VALID,0.776172,
2011-07-07, 01:59:04,VALID,916.483,VALID,0,VALID,83.4459,VALID,0.107441,VALID,17.6169,VALID,125,VALID,0.872656,
2011-07-07, 02:00:04,VALID,916.468,VALID,0,VALID,83.2934,VALID,0.107441,VALID,17.6559,VALID,125,VALID,0.917188,
2011-07-07, 02:01:04,VALID,916.458,VALID,0,VALID,83.4002,VALID,0.107441,VALID,17.6559,VALID,125,VALID,0.534766,
2011-07-07, 02:02:04,VALID,916.445,VALID,0,VALID,83.5145,VALID,0.107441,VALID,17.6754,VALID,125,VALID,0.685156,
2011-07-07, 02:03:04,VALID,916.453,VALID,0,VALID,82.8132,VALID,0,VALID,17.7338,VALID,125,VALID,0.649219,
2011-07-07, 02:04:04,VALID,916.437,VALID,0,VALID,82.7293,VALID,0,VALID,17.7728,VALID,125,VALID,0.80625,
2011-07-07, 02:05:04,VALID,916.424,VALID,0,VALID,82.6836,VALID,0,VALID,17.7728,VALID,125,VALID,0.787891,
2011-07-07, 02:06:04,VALID,916.419,VALID,0,VALID,82.9123,VALID,0,VALID,17.7533,VALID,125,VALID,1.11914,
2011-07-07, 02:07:04,VALID,916.444,VALID,0,VALID,83.2934,VALID,0,VALID,17.7547,VALID,125,VALID,1.19531,
2011-07-07, 02:08:04,VALID,916.421,VALID,0,VALID,83.667,VALID,0,VALID,17.7352,VALID,125,VALID,1.25273,
2011-07-07, 02:09:04,VALID,916.402,VALID,0,VALID,84.2235,VALID,0,VALID,17.6962,VALID,125,VALID,1.32109,
2011-07-07, 02:10:04,VALID,916.4,VALID,0,VALID,84.841,VALID,0,VALID,17.6377,VALID,125,VALID,1.07734,
2011-07-07, 02:11:04,VALID,916.425,VALID,0,VALID,85.0773,VALID,0,VALID,17.5403,VALID,125,VALID,1.1125,
2011-07-07, 02:12:04,VALID,916.399,VALID,0,VALID,85.9693,VALID,0,VALID,17.4428,VALID,126,VALID,1.0875,
2011-07-07, 02:13:04,VALID,916.386,VALID,0,VALID,86.198,VALID,0,VALID,17.3844,VALID,126,VALID,0.705859,
2011-07-07, 02:14:04,VALID,916.37,VALID,0,VALID,86.9984,VALID,0,VALID,17.3064,VALID,126,VALID,1.10547,
2011-07-07, 02:15:04,VALID,916.354,VALID,0,VALID,87.1433,VALID,0,VALID,17.2479,VALID,126,VALID,1.02422,
2011-07-07, 02:16:04,VALID,916.335,VALID,0,VALID,87.9437,VALID,0,VALID,17.1895,VALID,126,VALID,1.1957,
2011-07-07, 02:17:04,VALID,916.287,VALID,0,VALID,88.4088,VALID,0,VALID,17.1882,VALID,126,VALID,1.30625,
2011-07-07, 02:18:04,VALID,916.277,VALID,0,VALID,88.4621,VALID,0,VALID,17.2479,VALID,126,VALID,1.01641,
2011-07-07, 02:19:04,VALID,916.247,VALID,0,VALID,88.4926,VALID,0,VALID,17.2479,VALID,126,VALID,1.03125,
2011-07-07, 02:20:04,VALID,916.247,VALID,0,VALID,88.4011,VALID,0,VALID,17.2674,VALID,126,VALID,1.25625,
2011-07-07, 02:21:04,VALID,916.226,VALID,0,VALID,88.2105,VALID,0,VALID,17.2285,VALID,126,VALID,1.06367,
2011-07-07, 02:22:04,VALID,916.257,VALID,0,VALID,88.4621,VALID,0.107441,VALID,17.2077,VALID,127,VALID,1.28828,
2011-07-07, 02:23:04,VALID,916.243,VALID,0,VALID,87.8827,VALID,0.107441,VALID,17.2466,VALID,127,VALID,1.36719,
2011-07-07, 02:24:04,VALID,916.256,VALID,0,VALID,87.3796,VALID,0.107441,VALID,17.3051,VALID,127,VALID,1.31875,
2011-07-07, 02:25:04,VALID,916.209,VALID,0,VALID,86.6172,VALID,0.107441,VALID,17.3441,VALID,126,VALID,1.24727,
2011-07-07, 02:26:04,VALID,916.234,VALID,0,VALID,86.1598,VALID,0.107441,VALID,17.383,VALID,127,VALID,1.14414,
2011-07-07, 02:27:04,VALID,916.208,VALID,0,VALID,85.9998,VALID,0,VALID,17.383,VALID,127,VALID,1.24102,
2011-07-07, 02:28:04,VALID,916.206,VALID,0,VALID,85.8854,VALID,0.107441,VALID,17.3246,VALID,127,VALID,0.963281,
2011-07-07, 02:29:04,VALID,916.214,VALID,0,VALID,86.1446,VALID,0,VALID,17.2856,VALID,127,VALID,0.541797,
2011-07-07, 02:30:04,VALID,916.251,VALID,0,VALID,86.2513,VALID,0,VALID,17.2077,VALID,127,VALID,0.560938,
2011-07-07, 02:31:04,VALID,916.237,VALID,0,VALID,86.5029,VALID,0,VALID,17.1492,VALID,126,VALID,0.514063,
2011-07-07, 02:32:04,VALID,916.239,VALID,0,VALID,86.724,VALID,0.107441,VALID,17.1297,VALID,127,VALID,0.139062,
2011-07-07, 02:33:04,VALID,916.266,VALID,0,VALID,86.9069,VALID,0.107441,VALID,17.0713,VALID,127,VALID,0.258594,
2011-07-07, 02:34:04,VALID,916.23,VALID,0,VALID,87.6693,VALID,0.107441,VALID,17.0323,VALID,127,VALID,0.548047,
2011-07-07, 02:35:04,VALID,916.242,VALID,0,VALID,87.6007,VALID,0.107441,VALID,17.0907,VALID,127,VALID,0.713281,
2011-07-07, 02:36:04,VALID,916.261,VALID,0,VALID,87.0975,VALID,0.107441,VALID,17.1687,VALID,127,VALID,0.71875,
2011-07-07, 02:37:04,VALID,916.261,VALID,0,VALID,86.8612,VALID,0,VALID,17.2285,VALID,127,VALID,0.536719,
2011-07-07, 02:38:04,VALID,916.3,VALID,0,VALID,86.6401,VALID,0,VALID,17.209,VALID,127,VALID,0.358594,
2011-07-07, 02:39:04,VALID,916.301,VALID,0,VALID,86.6401,VALID,0,VALID,17.1895,VALID,127,VALID,0.214062,
2011-07-07, 02:40:04,VALID,916.294,VALID,0,VALID,86.602,VALID,0,VALID,17.17,VALID,127,VALID,0.826953,
2011-07-07, 02:41:04,VALID,916.313,VALID,0,VALID,86.1675,VALID,0,VALID,17.2285,VALID,127,VALID,1.06328,
2011-07-07, 02:42:04,VALID,916.352,VALID,0,VALID,86.0684,VALID,0,VALID,17.2869,VALID,127,VALID,0.823828,
2011-07-07, 02:43:04,VALID,916.357,VALID,0,VALID,86.3733,VALID,0,VALID,17.2674,VALID,126,VALID,0.730859,
2011-07-07, 02:44:04,VALID,916.373,VALID,0,VALID,86.4877,VALID,0,VALID,17.3064,VALID,127,VALID,0.891016,
2011-07-07, 02:45:04,VALID,916.358,VALID,0,VALID,85.8549,VALID,0,VALID,17.3649,VALID,127,VALID,0.480859,
2011-07-07, 02:46:04,VALID,916.374,VALID,0,VALID,85.5881,VALID,0,VALID,17.4038,VALID,127,VALID,0.607031,
2011-07-07, 02:47:04,VALID,916.323,VALID,0,VALID,85.3518,VALID,0,VALID,17.4233,VALID,127,VALID,0.599219,
2011-07-07, 02:48:04,VALID,916.338,VALID,0,VALID,85.9007,VALID,0,VALID,17.4038,VALID,127,VALID,0.720703,
2011-07-07, 02:49:04,VALID,916.329,VALID,0,VALID,86.5029,VALID,0,VALID,17.4441,VALID,126,VALID,0.978125,
2011-07-07, 02:50:04,VALID,916.314,VALID,0,VALID,86.2666,VALID,0,VALID,17.4818,VALID,127,VALID,0.922656,
2011-07-07, 02:51:04,VALID,916.308,VALID,0,VALID,85.5042,VALID,0,VALID,17.4428,VALID,127,VALID,0.456641,
2011-07-07, 02:52:04,VALID,916.349,VALID,0,VALID,84.963,VALID,0,VALID,17.3272,VALID,127,VALID,0.401953,
2011-07-07, 02:53:04,VALID,916.323,VALID,0,VALID,87.0823,VALID,0,VALID,17.209,VALID,127,VALID,0.722656,
2011-07-07, 02:54:04,VALID,916.31,VALID,0,VALID,87.8141,VALID,0,VALID,17.17,VALID,127,VALID,1.00586,
2011-07-07, 02:55:04,VALID,916.286,VALID,0,VALID,88.0657,VALID,0,VALID,17.17,VALID,127,VALID,0.675,
2011-07-07, 02:56:04,VALID,916.299,VALID,0,VALID,87.9971,VALID,0,VALID,17.1687,VALID,127,VALID,0.628906,
2011-07-07, 02:57:04,VALID,916.346,VALID,0,VALID,87.2957,VALID,0,VALID,17.17,VALID,127,VALID,0.508203,
2011-07-07, 02:58:04,VALID,916.303,VALID,0,VALID,86.9756,VALID,0,VALID,17.131,VALID,127,VALID,0.346094,
2011-07-07, 02:59:04,VALID,916.306,VALID,0,VALID,87.1051,VALID,0,VALID,17.0531,VALID,127,VALID,0.492188,
2011-07-07, 03:00:04,VALID,916.307,VALID,0,VALID,88.6451,VALID,0,VALID,16.9751,VALID,127,VALID,0.645312,
2011-07-07, 03:01:04,VALID,916.307,VALID,0,VALID,89.1254,VALID,0,VALID,16.9362,VALID,127,VALID,0.746875,
2011-07-07, 03:02:04,VALID,916.295,VALID,0,VALID,89.0186,VALID,0,VALID,16.9556,VALID,127,VALID,0.954687,
2011-07-07, 03:03:04,VALID,916.261,VALID,0,VALID,88.6908,VALID,0,VALID,16.9751,VALID,127,VALID,1.08203,
2011-07-07, 03:04:04,VALID,916.303,VALID,0,VALID,88.0886,VALID,0,VALID,17.0518,VALID,127,VALID,0.999219,
2011-07-07, 03:05:04,VALID,916.288,VALID,0,VALID,87.3339,VALID,0,VALID,17.1297,VALID,127,VALID,0.874609,
2011-07-07, 03:06:04,VALID,916.266,VALID,0,VALID,86.9908,VALID,0,VALID,17.1895,VALID,127,VALID,0.885938,
2011-07-07, 03:07:04,VALID,916.271,VALID,0,VALID,86.6782,VALID,0,VALID,17.1895,VALID,127,VALID,0.662109,
2011-07-07, 03:08:04,VALID,916.257,VALID,0,VALID,86.8231,VALID,0,VALID,17.1895,VALID,127,VALID,0.779297,
2011-07-07, 03:09:04,VALID,916.281,VALID,0,VALID,86.8155,VALID,0,VALID,17.1908,VALID,127,VALID,0.800781,
2011-07-07, 03:10:04,VALID,916.285,VALID,0,VALID,86.3962,VALID,0,VALID,17.1505,VALID,127,VALID,1.13516,
2011-07-07, 03:11:04,VALID,916.267,VALID,0,VALID,86.137,VALID,0,VALID,17.1895,VALID,127,VALID,1.0793,
2011-07-07, 03:12:04,VALID,916.31,VALID,0,VALID,85.893,VALID,0,VALID,17.2674,VALID,127,VALID,1.0125,
2011-07-07, 03:13:04,VALID,916.322,VALID,0,VALID,85.2069,VALID,0,VALID,17.2869,VALID,127,VALID,0.576953,
2011-07-07, 03:14:04,VALID,916.302,VALID,0,VALID,85.4204,VALID,0,VALID,17.2285,VALID,127,VALID,0.462109,
2011-07-07, 03:15:04,VALID,916.281,VALID,0,VALID,86.6554,VALID,0,VALID,17.17,VALID,127,VALID,0.8125,
2011-07-07, 03:16:04,VALID,916.264,VALID,0,VALID,87.1585,VALID,0,VALID,17.131,VALID,127,VALID,0.8125,
2011-07-07, 03:17:04,VALID,916.249,VALID,0,VALID,87.2576,VALID,0,VALID,17.092,VALID,127,VALID,0.749609,
2011-07-07, 03:18:04,VALID,916.206,VALID,0,VALID,87.311,VALID,0,VALID,17.0141,VALID,127,VALID,0.510156,
2011-07-07, 03:19:04,VALID,916.285,VALID,0,VALID,87.4939,VALID,0,VALID,16.9362,VALID,127,VALID,0.3625,
2011-07-07, 03:20:04,VALID,916.246,VALID,0,VALID,88.2334,VALID,0,VALID,16.8985,VALID,127,VALID,0.758984,
2011-07-07, 03:21:04,VALID,916.259,VALID,0,VALID,87.9666,VALID,0,VALID,16.8582,VALID,127,VALID,0.623438,
2011-07-07, 03:22:04,VALID,916.27,VALID,0,VALID,86.9527,VALID,0.107441,VALID,16.779,VALID,127,VALID,0.467187,
2011-07-07, 03:23:04,VALID,916.235,VALID,0,VALID,88.1496,VALID,0.107441,VALID,16.6816,VALID,127,VALID,0.220313,
2011-07-07, 03:24:04,VALID,916.224,VALID,0,VALID,88.5079,VALID,0.107441,VALID,16.5659,VALID,127,VALID,0.729297,
2011-07-07, 03:25:04,VALID,916.256,VALID,0,VALID,88.1877,VALID,0.107441,VALID,16.4296,VALID,127,VALID,0.370313,
2011-07-07, 03:26:04,VALID,916.274,VALID,0,VALID,88.668,VALID,0.107441,VALID,16.2725,VALID,127,VALID,0.192188,
2011-07-07, 03:27:04,VALID,916.271,VALID,0,VALID,89.659,VALID,0.107441,VALID,16.253,VALID,127,VALID,0.489062,
2011-07-07, 03:28:04,VALID,916.266,VALID,0,VALID,90.4899,VALID,0.107441,VALID,16.2725,VALID,127,VALID,0.561719,
2011-07-07, 03:29:04,VALID,916.27,VALID,0,VALID,90.7796,VALID,0.107441,VALID,16.2919,VALID,127,VALID,0.769531,
2011-07-07, 03:30:04,VALID,916.28,VALID,0,VALID,91.0312,VALID,0.107441,VALID,16.3699,VALID,127,VALID,0.981641,
2011-07-07, 03:31:04,VALID,916.295,VALID,0,VALID,90.4137,VALID,0,VALID,16.527,VALID,127,VALID,1.03086,
2011-07-07, 03:32:04,VALID,916.317,VALID,0,VALID,89.476,VALID,0.107441,VALID,16.6231,VALID,127,VALID,0.640234,
2011-07-07, 03:33:04,VALID,916.329,VALID,0,VALID,87.2957,VALID,0,VALID,16.6049,VALID,127,VALID,0.107813,
2011-07-07, 03:34:04,VALID,916.362,VALID,0,VALID,87.5778,VALID,0,VALID,16.5062,VALID,127,VALID,0.322266,
2011-07-07, 03:35:04,VALID,916.318,VALID,0,VALID,88.9653,VALID,0,VALID,16.4088,VALID,127,VALID,0.34375,
2011-07-07, 03:36:04,VALID,916.377,VALID,0,VALID,89.3388,VALID,0.107441,VALID,16.3114,VALID,127,VALID,0.380859,
2011-07-07, 03:37:04,VALID,916.381,VALID,0,VALID,89.4227,VALID,0,VALID,16.253,VALID,127,VALID,0.583203,
2011-07-07, 03:38:04,VALID,916.387,VALID,0,VALID,89.5751,VALID,0.107441,VALID,16.1945,VALID,127,VALID,0.399219,
2011-07-07, 03:39:04,VALID,916.374,VALID,0,VALID,90.2003,VALID,0.107441,VALID,16.214,VALID,127,VALID,0.651953,
2011-07-07, 03:40:04,VALID,916.405,VALID,0,VALID,89.9411,VALID,0.107441,VALID,16.2725,VALID,127,VALID,0.9625,
2011-07-07, 03:41:04,VALID,916.402,VALID,0,VALID,89.5218,VALID,0,VALID,16.5075,VALID,127,VALID,1.02031,
2011-07-07, 03:42:04,VALID,916.427,VALID,0,VALID,89.2168,VALID,0.107441,VALID,16.5842,VALID,127,VALID,1.23164,
2011-07-07, 03:43:04,VALID,916.42,VALID,0,VALID,89.3312,VALID,0,VALID,16.6828,VALID,127,VALID,1.0707,